Location: Banff
(51.1667°N, 115.5667°W)
Time: 03:09:54
(UTC+00:00)

Explorer 7 - Pass Details

Date: 30 November 2020
Orbit: 484 x 678 km, 50.3° (Epoch: 16 January)

Event Time Altitude Azimuth Distance (km) Brightness Sun altitude
Exits shadow 14:24:49 10° 273° (W) 1,843 8.9 -8.9°
Reaches altitude 10° 14:24:50 10° 273° (W) 1,835 8.9 -8.8°
Maximum altitude 14:28:30 30° 211° (SSW) 964 8.0 -8.3°
Drops below altitude 10° 14:31:58 10° 149° (SSE) 1,735 10.3 -7.8°
Sets 14:34:16 0° 139° (SE) 2,592 11.7 -7.5°
